Vilalleons (Osona)





Hora UTC 07:55
Temperatura 7.8 ºC
Humitat 98.0 %
Pressió 1002.1 hPa
Pluja 0.2 mm
Velocitat vent 1.6 km/h
Direcció vent SSW

Dades diàries 2022-12-10



Hora UTC (hivern +1h; estiu +2h)
Temperatura (ºC) Humitat (%) Pressió (hPa) Velocitat vent (km/h) Precipitació (mm)
Hora UTC Aire Humitat Pressió Vel. Dir. Vel. Max Dir. Intent. màx 5 min.
00:05 7.9 96.0 999.6 0.0 ESE 0.0 0.0
00:10 7.9 96.0 999.6 0.0 ESE 0.0 0.0
00:15 7.8 96.0 999.6 0.0 ESE 0.0 0.0
00:20 7.8 96.0 999.5 0.0 ESE 0.0 0.0
00:25 7.8 95.0 999.3 0.0 ESE 0.0 0.0
00:30 7.8 96.0 999.4 0.0 ESE 0.0 0.0
00:35 7.8 96.0 999.4 0.0 ESE 0.0 0.0
00:40 7.8 96.0 999.6 0.0 ESE 4.8 0.0
00:45 7.8 96.0 999.6 1.6 ESE 4.8 0.0
00:50 7.8 96.0 999.6 1.6 ESE 3.2 0.0
00:55 7.7 96.0 999.6 1.6 ESE 1.6 0.0
01:00 7.8 96.0 999.6 0.0 ESE 3.2 0.0
01:05 7.7 96.0 999.6 0.0 ESE 3.2 0.2
01:10 7.7 96.0 999.5 1.6 ESE 3.2 0.0
01:15 7.8 96.0 999.5 0.0 ESE 3.2 0.0
01:20 7.8 96.0 999.6 0.0 ESE 3.2 0.0
01:25 7.8 96.0 999.7 0.0 ESE 0.0 0.0
01:30 7.7 96.0 999.6 0.0 ESE 0.0 0.0
01:35 7.7 96.0 999.7 0.0 ESE 1.6 0.0
01:35 7.7 96.0 999.7 0.0 ESE 1.6 0.0
01:40 7.7 96.0 999.8 0.0 ESE 1.6 0.0
01:45 7.6 96.0 999.8 0.0 ESE 3.2 0.0
01:50 7.6 96.0 999.7 0.0 ESE 1.6 0.0
01:55 7.6 96.0 999.8 1.6 ESE 3.2 0.0
02:00 7.6 96.0 999.9 1.6 ESE 3.2 0.0
02:05 7.6 96.0 1000.0 0.0 ESE 3.2 0.0
02:10 7.6 96.0 1000.0 0.0 ESE 3.2 0.0
02:15 7.6 96.0 1000.2 0.0 ESE 3.2 0.0
02:25 7.7 97.0 1000.2 4.8 NW 4.8 0.0
02:30 7.7 97.0 1000.2 1.6 NW 4.8 0.0
02:35 7.7 97.0 1000.1 1.6 NW 3.2 0.0
02:40 7.7 97.0 1000.1 0.0 NW 3.2 0.0
02:45 7.7 97.0 1000.2 0.0 NW 3.2 0.0
02:50 7.6 97.0 1000.2 0.0 NW 1.6 0.0
02:55 7.6 97.0 1000.1 0.0 NW 0.0 0.0
03:00 7.6 97.0 1000.2 0.0 NW 0.0 0.0
03:05 7.6 97.0 1000.3 0.0 NW 0.0 0.0
03:10 7.6 97.0 1000.4 0.0 NW 1.6 0.0
03:15 7.6 97.0 1000.3 0.0 NW 1.6 0.0
03:20 7.4 97.0 1000.2 0.0 NW 0.0 0.0
03:25 7.4 97.0 1000.2 0.0 NW 1.6 0.0
03:30 7.3 97.0 1000.3 1.6 NW 1.6 0.0
03:35 7.3 97.0 1000.2 0.0 NW 1.6 0.0
03:40 7.2 97.0 1000.3 0.0 NW 1.6 0.0
03:45 7.2 97.0 1000.3 0.0 NW 0.0 0.0
03:50 7.2 97.0 1000.2 0.0 NW 0.0 0.0
03:55 7.2 97.0 1000.3 0.0 NW 0.0 0.0
04:00 7.2 97.0 1000.5 0.0 NW 0.0 0.0
04:05 7.2 97.0 1000.4 1.6 NW 3.2 0.0
04:10 7.1 97.0 1000.3 1.6 NW 4.8 0.0
04:15 7.1 97.0 1000.4 0.0 NW 4.8 0.0
04:20 7.2 97.0 1000.5 1.6 NW 1.6 0.0
04:25 7.2 97.0 1000.4 1.6 NW 3.2 0.0
04:30 7.3 97.0 1000.4 0.0 NW 3.2 0.0
04:35 7.3 97.0 1000.4 0.0 NW 1.6 0.0
04:40 7.3 97.0 1000.5 0.0 NW 0.0 0.0
04:45 7.4 97.0 1000.5 1.6 NW 3.2 0.0
04:50 7.3 97.0 1000.5 1.6 NW 3.2 0.0
04:55 7.3 97.0 1000.4 3.2 ESE 4.8 0.0
05:00 7.3 97.0 1000.5 0.0 ESE 4.8 0.0
05:05 7.2 97.0 1000.5 3.2 ESE 3.2 0.0
05:10 7.1 97.0 1000.3 0.0 ESE 3.2 0.0
05:15 7.0 97.0 1000.3 1.6 ESE 3.2 0.0
05:20 6.8 96.0 1000.4 1.6 ESE 3.2 0.0
05:25 6.7 97.0 1000.4 1.6 ESE 3.2 0.0
05:30 6.7 97.0 1000.4 0.0 ESE 3.2 0.0
05:35 6.5 97.0 1000.5 0.0 ESE 0.0 0.0
05:40 6.4 97.0 1000.5 0.0 ESE 0.0 0.0
05:45 6.3 96.0 1000.6 0.0 ESE 0.0 0.0
05:50 6.2 96.0 1000.6 0.0 ESE 0.0 0.0
05:55 6.1 96.0 1000.7 0.0 ESE 0.0 0.0
06:00 6.0 97.0 1000.8 0.0 ESE 0.0 0.0
06:05 6.0 97.0 1000.9 0.0 ESE 0.0 0.0
06:10 6.1 97.0 1001.1 0.0 ESE 0.0 0.0
06:15 6.1 97.0 1001.1 0.0 ESE 4.8 0.0
06:20 6.1 97.0 1001.2 0.0 ESE 4.8 0.0
06:25 6.1 97.0 1001.2 0.0 ESE 0.0 0.0
06:30 6.1 97.0 1001.2 0.0 ESE 0.0 0.0
06:35 6.2 97.0 1001.4 0.0 ESE 0.0 0.0
06:40 6.4 98.0 1001.5 0.0 ESE 1.6 0.0
06:45 6.7 98.0 1001.6 1.6 E 3.2 0.0
06:50 6.8 98.0 1001.7 0.0 E 3.2 0.0
06:55 6.8 98.0 1001.7 0.0 E 1.6 0.0
07:00 6.9 98.0 1001.7 1.6 NE 4.8 0.0
07:05 7.0 98.0 1001.7 1.6 ENE 4.8 0.0
07:10 7.1 98.0 1001.7 1.6 ENE 3.2 0.0
07:15 7.1 98.0 1001.6 0.0 ENE 1.6 0.0
07:20 7.1 98.0 1001.8 0.0 ENE 3.2 0.0
07:25 7.2 98.0 1001.8 3.2 SW 8.0 0.0
07:30 7.2 98.0 1001.9 3.2 SW 8.0 0.0
07:35 7.3 98.0 1001.9 3.2 SW 6.4 0.0
07:40 7.6 98.0 1002.0 0.0 WSW 6.4 0.0
07:45 7.7 98.0 1002.1 1.6 S 4.8 0.0
07:50 7.7 98.0 1002.0 0.0 SSW 8.0 0.0
07:55 7.8 98.0 1002.1 1.6 SSW 8.0 0.0
Màxima 8.3 98.0 1002.1 4.8 NW 8.0 0.2
Mínima 6.0 95.0 999.3
Total 0.2